| time (UTC) | temp C | wind direction | speed KPH | gust KPH | rain 1hr cm | rain 24hr cm | rain mn cm | humidity % | barometer mb |
| 20260507201154 | 16 | 209 | 3.2 | 4.8 | 0.00 | 0.61 | 0.61 | 34 | 1008.8 |
| 20260507200650 | 16 | 185 | 4.8 | 6.4 | 0.00 | 0.61 | 0.61 | 36 | 1008.8 |
| 20260507200146 | 16 | 331 | 8.0 | 12.9 | 0.00 | 0.61 | 0.61 | 35 | 1008.9 |
| 20260507195643 | 16 | 254 | 6.4 | 6.4 | 0.00 | 0.61 | 0.61 | 35 | 1008.9 |
| 20260507195140 | 16 | 189 | 3.2 | 4.8 | 0.00 | 0.61 | 0.61 | 33 | 1008.8 |
| 20260507194637 | 16 | 201 | 4.8 | 4.8 | 0.00 | 0.61 | 0.61 | 35 | 1008.9 |
| 20260507194132 | 16 | 196 | 6.4 | 11.3 | 0.00 | 0.61 | 0.61 | 34 | 1009.2 |
| 20260507193630 | 16 | 306 | 3.2 | 4.8 | 0.00 | 0.61 | 0.61 | 36 | 1009.2 |
| 20260507193127 | 16 | 14 | 4.8 | 4.8 | 0.00 | 0.61 | 0.61 | 35 | 1009.1 |
| 20260507192623 | 16 | 262 | 3.2 | 6.4 | 0.00 | 0.61 | 0.61 | 35 | 1009.2 |
| 20260507192120 | 17 | 243 | 4.8 | 6.4 | 0.00 | 0.61 | 0.61 | 36 | 1009.2 |
| 20260507191615 | 16 | 210 | 1.6 | 1.6 | 0.00 | 0.61 | 0.61 | 36 | 1009.1 |
| 20260507191112 | 17 | 311 | 11.3 | 16.1 | 0.00 | 0.61 | 0.61 | 34 | 1009.3 |
| 20260507190610 | 16 | 195 | 6.4 | 9.7 | 0.00 | 0.61 | 0.61 | 35 | 1009.4 |
| 20260507190109 | 17 | 299 | 6.4 | 11.3 | 0.00 | 0.61 | 0.61 | 35 | 1009.4 |
| 20260507185607 | 16 | 238 | 6.4 | 9.7 | 0.00 | 0.61 | 0.61 | 37 | 1009.3 |
| 20260507185103 | 16 | 177 | 3.2 | 4.8 | 0.00 | 0.61 | 0.61 | 35 | 1009.3 |
| 20260507184601 | 17 | 241 | 4.8 | 6.4 | 0.00 | 0.61 | 0.61 | 36 | 1009.4 |
| 20260507184059 | 17 | 277 | 3.2 | 3.2 | 0.00 | 0.61 | 0.61 | 35 | 1009.6 |
| 20260507183554 | 16 | 204 | 3.2 | 4.8 | 0.00 | 0.61 | 0.61 | 43 | 1009.5 |
| 20260507183052 | 16 | 219 | 3.2 | 4.8 | 0.00 | 0.61 | 0.61 | 37 | 1009.4 |
| 20260507182548 | 16 | 229 | 3.2 | 3.2 | 0.00 | 0.61 | 0.61 | 39 | 1009.6 |
| 20260507182044 | 16 | 211 | 6.4 | 6.4 | 0.00 | 0.61 | 0.61 | 40 | 1009.7 |
| 20260507181541 | 16 | 300 | 4.8 | 4.8 | 0.00 | 0.61 | 0.61 | 40 | 1009.8 |
| 20260507181037 | 16 | 359 | 11.3 | 16.1 | 0.00 | 0.61 | 0.61 | 38 | 1009.7 |
| 20260507180533 | 16 | 78 | 1.6 | 1.6 | 0.00 | 0.61 | 0.61 | 43 | 1009.9 |
| 20260507180031 | 16 | 256 | 8.0 | 11.3 | 0.00 | 0.61 | 0.61 | 37 | 1009.8 |
| 20260507175526 | 16 | 186 | 1.6 | 3.2 | 0.00 | 0.61 | 0.61 | 39 | 1009.8 |
| 20260507175025 | 16 | 307 | 12.9 | 20.9 | 0.00 | 0.61 | 0.61 | 38 | 1009.9 |
| 20260507174521 | 16 | 1 | 6.4 | 9.7 | 0.00 | 0.61 | 0.61 | 39 | 1010.0 |
| 20260507174019 | 16 | 194 | 3.2 | 3.2 | 0.00 | 0.61 | 0.61 | 41 | 1009.8 |
| 20260507173516 | 16 | 249 | 6.4 | 9.7 | 0.00 | 0.61 | 0.61 | 37 | 1010.2 |
| 20260507173013 | 16 | 3 | 4.8 | 6.4 | 0.00 | 0.61 | 0.61 | 38 | 1009.9 |
| 20260507172509 | 16 | 185 | 0.0 | 1.6 | 0.00 | 0.61 | 0.61 | 38 | 1009.9 |
| 20260507172006 | 16 | 134 | 3.2 | 3.2 | 0.00 | 0.61 | 0.61 | 40 | 1009.9 |
| 20260507171501 | 15 | 163 | 1.6 | 3.2 | 0.00 | 0.61 | 0.61 | 39 | 1010.1 |
| 20260507171000 | 16 | 180 | 4.8 | 6.4 | 0.00 | 0.61 | 0.61 | 40 | 1010.3 |
| 20260507170455 | 16 | 288 | 6.4 | 9.7 | 0.00 | 0.61 | 0.61 | 35 | 1010.3 |
| 20260507165952 | 16 | 152 | 3.2 | 3.2 | 0.00 | 0.61 | 0.61 | 41 | 1010.4 |
| 20260507165448 | 15 | 185 | 8.0 | 9.7 | 0.00 | 0.61 | 0.61 | 37 | 1010.5 |
| 20260507164944 | 15 | 223 | 3.2 | 3.2 | 0.00 | 0.61 | 0.61 | 38 | 1010.6 |
| 20260507164441 | 15 | 143 | 6.4 | 9.7 | 0.00 | 0.61 | 0.61 | 40 | 1010.4 |
| 20260507163937 | 15 | 211 | 6.4 | 9.7 | 0.00 | 0.61 | 0.61 | 38 | 1010.5 |
| 20260507163435 | 15 | 192 | 3.2 | 4.8 | 0.00 | 0.61 | 0.61 | 42 | 1010.5 |
| 20260507162932 | 15 | 216 | 3.2 | 4.8 | 0.00 | 0.61 | 0.61 | 47 | 1010.7 |
| 20260507162427 | 15 | 204 | 3.2 | 3.2 | 0.00 | 0.61 | 0.61 | 43 | 1010.6 |
| 20260507161925 | 15 | 226 | 3.2 | 6.4 | 0.00 | 0.61 | 0.61 | 46 | 1010.7 |
| 20260507161421 | 15 | 236 | 9.7 | 12.9 | 0.00 | 0.61 | 0.61 | 46 | 1010.7 |
| 20260507160918 | 15 | 193 | 3.2 | 4.8 | 0.00 | 0.61 | 0.61 | 45 | 1010.9 |
| 20260507160414 | 15 | 305 | 4.8 | 6.4 | 0.00 | 0.61 | 0.61 | 46 | 1011.0 |
| 20260507155910 | 15 | 303 | 3.2 | 6.4 | 0.00 | 0.61 | 0.61 | 50 | 1011.0 |
| 20260507155406 | 15 | 232 | 6.4 | 6.4 | 0.00 | 0.61 | 0.61 | 46 | 1010.9 |
| 20260507154903 | 15 | 249 | 3.2 | 4.8 | 0.00 | 0.61 | 0.61 | 50 | 1011.1 |
| 20260507154400 | 15 | 202 | 3.2 | 3.2 | 0.00 | 0.61 | 0.61 | 57 | 1011.2 |
| 20260507153950 | 15 | 258 | 4.8 | 9.7 | 0.00 | 0.61 | 0.61 | 56 | 1010.9 |
| 20260507153857 | 15 | 258 | 4.8 | 9.7 | 0.00 | 0.61 | 0.61 | 56 | 1010.9 |
| 20260507153353 | 15 | 233 | 3.2 | 4.8 | 0.00 | 0.61 | 0.61 | 57 | 1011.1 |
| 20260507153215 | 15 | 261 | 6.4 | 9.7 | 0.00 | 0.61 | 0.61 | 56 | 1011.2 |
| 20260507152850 | 15 | 261 | 6.4 | 9.7 | 0.00 | 0.61 | 0.61 | 56 | 1011.2 |
| 20260507152555 | 13 | 192 | 3.2 | 3.2 | 0.00 | 0.61 | 0.61 | 58 | 1011.2 |
| 20260507152346 | 14 | 205 | 3.2 | 3.2 | 0.00 | 0.61 | 0.61 | 55 | 1011.1 |
| 20260507151842 | 13 | 192 | 3.2 | 3.2 | 0.00 | 0.61 | 0.61 | 58 | 1011.2 |
| 20260507151338 | 13 | 185 | 3.2 | 4.8 | 0.00 | 0.61 | 0.61 | 59 | 1011.1 |
| 20260507150836 | 14 | 185 | 8.0 | 9.7 | 0.00 | 0.61 | 0.61 | 59 | 1011.2 |
| 20260507150332 | 14 | 228 | 8.0 | 9.7 | 0.00 | 0.61 | 0.61 | 59 | 1011.2 |
| 20260507145829 | 14 | 169 | 6.4 | 11.3 | 0.00 | 0.61 | 0.61 | 63 | 1011.2 |
| 20260507145325 | 13 | 244 | 3.2 | 3.2 | 0.00 | 0.61 | 0.61 | 64 | 1011.3 |
| 20260507144822 | 13 | 230 | 6.4 | 6.4 | 0.00 | 0.61 | 0.61 | 68 | 1011.2 |
| 20260507144320 | 13 | 187 | 4.8 | 4.8 | 0.00 | 0.61 | 0.61 | 67 | 1011.4 |
| 20260507143816 | 14 | 238 | 4.8 | 9.7 | 0.00 | 0.61 | 0.61 | 68 | 1011.3 |
| 20260507143313 | 13 | 204 | 3.2 | 3.2 | 0.00 | 0.61 | 0.61 | 71 | 1011.2 |
| 20260507142809 | 13 | 129 | 1.6 | 3.2 | 0.00 | 0.61 | 0.61 | 72 | 1011.5 |
| 20260507142307 | 13 | 212 | 3.2 | 4.8 | 0.00 | 0.61 | 0.61 | 72 | 1011.3 |
| 20260507141803 | 13 | 237 | 6.4 | 6.4 | 0.00 | 0.61 | 0.61 | 70 | 1011.4 |
| 20260507141300 | 13 | 245 | 0.0 | 1.6 | 0.00 | 0.61 | 0.61 | 76 | 1011.5 |
| 20260507140755 | 12 | 293 | 4.8 | 9.7 | 0.00 | 0.61 | 0.61 | 76 | 1011.7 |
| 20260507140253 | 12 | 256 | 1.6 | 3.2 | 0.00 | 0.61 | 0.61 | 78 | 1011.5 |
| 20260507135750 | 12 | 161 | 3.2 | 3.2 | 0.00 | 0.61 | 0.61 | 77 | 1011.5 |
| 20260507135247 | 13 | 176 | 1.6 | 3.2 | 0.00 | 0.61 | 0.61 | 75 | 1011.5 |
| 20260507134743 | 12 | 95 | 3.2 | 3.2 | 0.00 | 0.61 | 0.61 | 76 | 1011.7 |
| 20260507134240 | 13 | 276 | 4.8 | 6.4 | 0.00 | 0.61 | 0.61 | 77 | 1011.6 |
| 20260507133736 | 12 | 300 | 1.6 | 1.6 | 0.00 | 0.61 | 0.61 | 79 | 1011.7 |
| 20260507133233 | 12 | 186 | 1.6 | 3.2 | 0.00 | 0.61 | 0.61 | 78 | 1011.6 |
| 20260507132730 | 12 | 4 | 6.4 | 9.7 | 0.00 | 0.61 | 0.61 | 80 | 1011.8 |
| 20260507132227 | 11 | 327 | 3.2 | 4.8 | 0.00 | 0.61 | 0.61 | 82 | 1011.8 |
| 20260507131724 | 11 | 344 | 8.0 | 12.9 | 0.00 | 0.61 | 0.61 | 83 | 1011.8 |
| 20260507131221 | 11 | 176 | 3.2 | 3.2 | 0.00 | 0.61 | 0.61 | 84 | 1012.0 |
| 20260507130718 | 11 | 167 | 1.6 | 3.2 | 0.00 | 0.61 | 0.61 | 84 | 1011.9 |
| 20260507130216 | 11 | 153 | 1.6 | 3.2 | 0.00 | 0.61 | 0.61 | 87 | 1011.6 |
| 20260507125714 | 11 | 172 | 4.8 | 6.4 | 0.00 | 0.61 | 0.61 | 87 | 1011.7 |
| 20260507125212 | 10 | 214 | 3.2 | 4.8 | 0.00 | 0.61 | 0.61 | 90 | 1011.8 |
| 20260507124708 | 10 | 253 | 6.4 | 9.7 | 0.00 | 0.61 | 0.61 | 91 | 1011.8 |
| 20260507124205 | 10 | 201 | 3.2 | 4.8 | 0.00 | 0.61 | 0.61 | 93 | 1011.8 |
| 20260507123703 | 10 | 211 | 1.6 | 3.2 | 0.00 | 0.61 | 0.61 | 94 | 1011.8 |
| 20260507123200 | 10 | 255 | 3.2 | 3.2 | 0.00 | 0.61 | 0.61 | 96 | 1011.6 |
| 20260507122655 | 9 | 213 | 3.2 | 3.2 | 0.00 | 0.61 | 0.61 | 96 | 1011.8 |
| 20260507122151 | 9 | 255 | 3.2 | 4.8 | 0.00 | 0.61 | 0.61 | 96 | 1011.8 |
| 20260507121647 | 9 | 166 | 1.6 | 1.6 | 0.00 | 0.61 | 0.61 | 97 | 1011.8 |
| 20260507121143 | 9 | 173 | 1.6 | 1.6 | 0.00 | 0.61 | 0.61 | 97 | 1011.9 |
| 20260507120640 | 9 | 231 | 0.0 | 0.0 | 0.00 | 0.61 | 0.61 | 98 | 1011.8 |
| 20260507120136 | 9 | 172 | 0.0 | 0.0 | 0.00 | 0.61 | 0.61 | 98 | 1012.0 |
| 20260507115633 | 9 | 210 | 0.0 | 0.0 | 0.00 | 0.61 | 0.61 | 99 | 1011.6 |
| 20260507115128 | 9 | 175 | 0.0 | 0.0 | 0.00 | 0.61 | 0.61 | 99 | 1011.2 |
| 20260507114624 | 9 | 275 | 3.2 | 4.8 | 0.00 | 0.61 | 0.61 | 99 | 1011.4 |
| 20260507114122 | 9 | 208 | 0.0 | 0.0 | 0.00 | 0.61 | 0.61 | 99 | 1011.3 |
| 20260507113619 | 9 | 192 | 0.0 | 0.0 | 0.00 | 0.61 | 0.61 | 99 | 1011.5 |
| 20260507113116 | 9 | 183 | 0.0 | 0.0 | 0.00 | 0.61 | 0.61 | 99 | 1011.3 |
| 20260507112614 | 9 | 166 | 0.0 | 0.0 | 0.00 | 0.61 | 0.61 | 99 | 1011.2 |
| 20260507112110 | 9 | 157 | 0.0 | 0.0 | 0.00 | 0.61 | 0.61 | 99 | 1011.5 |
| 20260507111608 | 9 | 162 | 0.0 | 0.0 | 0.00 | 0.61 | 0.61 | 99 | 1011.4 |
| 20260507111104 | 9 | 156 | 0.0 | 0.0 | 0.13 | 0.61 | 0.61 | 99 | 1011.2 |
| 20260507110600 | 9 | 157 | 0.0 | 0.0 | 0.13 | 0.61 | 0.61 | 99 | 1011.2 |
| 20260507110057 | 9 | 155 | 0.0 | 0.0 | 0.30 | 0.61 | 0.61 | 99 | 1011.0 |
| 20260507105554 | 8 | 157 | 0.0 | 0.0 | 0.30 | 0.58 | 0.58 | 99 | 1011.3 |
| 20260507105050 | 8 | 156 | 0.0 | 0.0 | 0.13 | 0.56 | 0.56 | 99 | 1011.2 |
| 20260507104548 | 8 | 147 | 0.0 | 0.0 | 0.18 | 0.53 | 0.53 | 99 | 1011.1 |
| 20260507104044 | 8 | 190 | 0.0 | 0.0 | 0.18 | 0.53 | 0.53 | 99 | 1010.7 |
| 20260507103540 | 8 | 168 | 0.0 | 0.0 | 0.18 | 0.53 | 0.53 | 98 | 1010.9 |
| 20260507103037 | 8 | 175 | 0.0 | 0.0 | 0.13 | 0.51 | 0.51 | 98 | 1010.9 |
| 20260507102533 | 8 | 153 | 0.0 | 0.0 | 0.30 | 0.51 | 0.51 | 98 | 1010.8 |
| 20260507102031 | 8 | 76 | 0.0 | 0.0 | 0.36 | 0.48 | 0.48 | 98 | 1010.8 |
| 20260507101525 | 8 | 187 | 1.6 | 3.2 | 0.18 | 0.46 | 0.46 | 98 | 1011.1 |
| 20260507101022 | 8 | 161 | 0.0 | 0.0 | 0.00 | 0.43 | 0.43 | 98 | 1011.2 |
| 20260507100519 | 8 | 35 | 1.6 | 1.6 | 0.00 | 0.43 | 0.43 | 98 | 1011.1 |
| 20260507100017 | 9 | 162 | 1.6 | 1.6 | 0.00 | 0.43 | 0.43 | 98 | 1011.0 |
| 20260507095515 | 9 | 162 | 0.0 | 0.0 | 0.13 | 0.43 | 0.43 | 98 | 1010.9 |
| 20260507095011 | 9 | 170 | 0.0 | 0.0 | 0.13 | 0.43 | 0.43 | 98 | 1010.9 |
| 20260507094507 | 9 | 144 | 1.6 | 1.6 | 0.00 | 0.41 | 0.41 | 98 | 1011.0 |
| 20260507094005 | 9 | 274 | 1.6 | 1.6 | 0.00 | 0.41 | 0.41 | 98 | 1010.9 |
| 20260507093502 | 9 | 146 | 1.6 | 3.2 | 0.00 | 0.41 | 0.41 | 98 | 1010.8 |
| 20260507093000 | 9 | 301 | 3.2 | 4.8 | 0.00 | 0.41 | 0.41 | 98 | 1010.4 |
| 20260507092456 | 9 | 113 | 1.6 | 3.2 | 0.18 | 0.41 | 0.41 | 98 | 1010.6 |
| 20260507091953 | 9 | 170 | 1.6 | 1.6 | 0.18 | 0.41 | 0.41 | 98 | 1010.8 |
| 20260507091450 | 9 | 142 | 1.6 | 3.2 | 0.00 | 0.38 | 0.38 | 98 | 1010.6 |
| 20260507090946 | 9 | 137 | 3.2 | 3.2 | 0.00 | 0.38 | 0.38 | 98 | 1010.5 |
| 20260507090442 | 9 | 49 | 0.0 | 0.0 | 0.00 | 0.38 | 0.38 | 98 | 1010.5 |
| 20260507085938 | 9 | 231 | 1.6 | 3.2 | 0.00 | 0.38 | 0.38 | 98 | 1010.5 |
| 20260507085436 | 9 | 139 | 0.0 | 0.0 | 0.00 | 0.38 | 0.38 | 97 | 1010.6 |
| 20260507084933 | 9 | 166 | 1.6 | 1.6 | 0.00 | 0.38 | 0.38 | 97 | 1010.6 |
| 20260507084430 | 9 | 291 | 3.2 | 3.2 | 0.13 | 0.38 | 0.38 | 97 | 1010.1 |
| 20260507083926 | 9 | 219 | 1.6 | 1.6 | 0.13 | 0.38 | 0.38 | 97 | 1010.2 |
| 20260507083423 | 9 | 220 | 4.8 | 4.8 | 0.00 | 0.36 | 0.36 | 96 | 1010.4 |
| 20260507082919 | 9 | 224 | 3.2 | 4.8 | 0.18 | 0.36 | 0.36 | 97 | 1010.6 |
| 20260507082415 | 10 | 217 | 0.0 | 0.0 | 0.18 | 0.36 | 0.36 | 97 | 1010.5 |
| 20260507081912 | 10 | 277 | 4.8 | 6.4 | 0.00 | 0.33 | 0.33 | 97 | 1010.5 |
| 20260507081408 | 10 | 181 | 3.2 | 3.2 | 0.13 | 0.33 | 0.33 | 97 | 1010.5 |
| 20260507080905 | 10 | 358 | 1.6 | 3.2 | 0.43 | 0.33 | 0.33 | 96 | 1010.5 |
| 20260507080401 | 10 | 254 | 1.6 | 3.2 | 0.48 | 0.30 | 0.30 | 96 | 1010.1 |
| 20260507075857 | 10 | 187 | 3.2 | 3.2 | 0.18 | 0.25 | 0.25 | 96 | 1010.4 |
| 20260507075353 | 10 | 190 | 1.6 | 1.6 | 0.13 | 0.23 | 0.23 | 96 | 1010.8 |
| 20260507074850 | 10 | 207 | 3.2 | 6.4 | 0.30 | 0.23 | 0.23 | 96 | 1011.0 |
| 20260507074347 | 10 | 166 | 0.0 | 0.0 | 0.48 | 0.20 | 0.20 | 95 | 1010.6 |
| 20260507073844 | 10 | 273 | 1.6 | 3.2 | 0.79 | 0.18 | 0.18 | 94 | 1011.0 |
| 20260507073341 | 10 | 207 | 1.6 | 3.2 | 0.79 | 0.13 | 0.13 | 92 | 1010.7 |
| 20260507072838 | 11 | 260 | 3.2 | 6.4 | 0.30 | 0.05 | 0.05 | 90 | 1010.9 |
| 20260507072335 | 11 | 259 | 4.8 | 6.4 | 0.18 | 0.03 | 0.03 | 85 | 1010.4 |
| 20260507071833 | 12 | 198 | 3.2 | 3.2 | 0.00 | 0.00 | 0.00 | 82 | 1009.9 |
| 20260507071330 | 12 | 257 | 8.0 | 9.7 | 0.00 | 0.00 | 0.00 | 82 | 1009.5 |
| 20260507070826 | 12 | 205 | 6.4 | 9.7 | 0.00 | 0.00 | 0.00 | 82 | 1009.4 |
| 20260507070323 | 12 | 3 | 4.8 | 4.8 | 0.00 | 0.00 | 0.00 | 83 | 1009.3 |
| 20260507065820 | 12 | 194 | 1.6 | 1.6 | 0.00 | 0.00 | 0.00 | 84 | 1009.4 |
| 20260507065317 | 12 | 291 | 6.4 | 9.7 | 0.00 | 0.00 | 0.00 | 86 | 1009.5 |
| 20260507064814 | 12 | 221 | 9.7 | 12.9 | 0.00 | 0.00 | 0.00 | 91 | 1009.5 |
| 20260507064313 | 13 | 266 | 3.2 | 6.4 | 0.00 | 0.00 | 0.00 | 93 | 1009.7 |
| 20260507063810 | 13 | 225 | 3.2 | 4.8 | 0.00 | 0.00 | 0.00 | 93 | 1009.8 |
| 20260507063307 | 13 | 316 | 6.4 | 9.7 | 0.00 | 0.00 | 0.00 | 92 | 1009.7 |
| 20260507062803 | 13 | 206 | 3.2 | 3.2 | 0.00 | 0.00 | 0.00 | 92 | 1009.6 |
| 20260507062300 | 13 | 314 | 4.8 | 4.8 | 0.00 | 0.00 | 0.00 | 92 | 1009.6 |
| 20260507061759 | 13 | 251 | 1.6 | 3.2 | 0.00 | 0.00 | 0.00 | 92 | 1009.6 |
| 20260507061256 | 13 | 126 | 3.2 | 4.8 | 0.00 | 0.00 | 0.00 | 92 | 1009.6 |
| 20260507060754 | 13 | 143 | 0.0 | 1.6 | 0.00 | 0.00 | 0.00 | 93 | 1009.5 |
| 20260507060250 | 13 | 181 | 0.0 | 0.0 | 0.00 | 0.00 | 0.00 | 93 | 1009.6 |
| 20260507055747 | 13 | 290 | 4.8 | 4.8 | 0.00 | 0.00 | 0.00 | 93 | 1009.6 |
| 20260507055242 | 13 | 220 | 0.0 | 0.0 | 0.00 | 0.00 | 0.00 | 93 | 1009.7 |
| 20260507054739 | 14 | 127 | 3.2 | 3.2 | 0.00 | 0.00 | 0.00 | 93 | 1009.8 |
| 20260507054236 | 14 | 216 | 1.6 | 3.2 | 0.00 | 0.00 | 0.00 | 93 | 1009.9 |
| 20260507053733 | 14 | 140 | 3.2 | 4.8 | 0.00 | 0.00 | 0.00 | 93 | 1009.8 |
| 20260507053230 | 14 | 191 | 0.0 | 0.0 | 0.00 | 0.00 | 0.00 | 93 | 1010.3 |
| 20260507052730 | 14 | 156 | 0.0 | 0.0 | 0.00 | 0.00 | 0.00 | 92 | 1010.1 |
| 20260507052225 | 14 | 198 | 1.6 | 1.6 | 0.00 | 0.00 | 0.00 | 92 | 1010.1 |
| 20260507051724 | 14 | 187 | 1.6 | 1.6 | 0.00 | 0.00 | 0.00 | 92 | 1009.9 |
| 20260507051220 | 14 | 250 | 1.6 | 3.2 | 0.00 | 0.00 | 0.00 | 92 | 1010.2 |
| 20260507050716 | 14 | 275 | 3.2 | 6.4 | 0.00 | 0.00 | 0.00 | 92 | 1010.1 |
| 20260507050214 | 15 | 287 | 4.8 | 4.8 | 0.00 | 0.00 | 0.00 | 93 | 1009.9 |
| 20260507045710 | 15 | 172 | 1.6 | 1.6 | 0.00 | 0.00 | 0.00 | 93 | 1010.3 |
| 20260507045207 | 15 | 92 | 3.2 | 4.8 | 0.00 | 0.00 | 0.00 | 94 | 1010.1 |
| 20260507044704 | 15 | 160 | 0.0 | 0.0 | 0.00 | 0.00 | 0.00 | 94 | 1010.2 |
| 20260507044201 | 15 | 197 | 0.0 | 0.0 | 0.00 | 0.00 | 0.00 | 95 | 1010.3 |
| 20260507043657 | 15 | 166 | 0.0 | 0.0 | 0.00 | 0.00 | 0.00 | 95 | 1010.2 |
| 20260507043154 | 15 | 169 | 1.6 | 1.6 | 0.00 | 0.00 | 0.00 | 95 | 1010.2 |
| 20260507042650 | 15 | 189 | 3.2 | 3.2 | 0.00 | 0.00 | 0.00 | 95 | 1010.2 |
| 20260507042145 | 15 | 261 | 3.2 | 3.2 | 0.00 | 0.00 | 0.00 | 96 | 1010.3 |
| 20260507041642 | 15 | 238 | 4.8 | 4.8 | 0.00 | 0.00 | 0.00 | 96 | 1010.1 |
| 20260507041138 | 15 | 171 | 1.6 | 1.6 | 0.00 | 0.00 | 0.00 | 97 | 1009.8 |
| 20260507040636 | 15 | 179 | 1.6 | 1.6 | 0.00 | 0.00 | 0.00 | 97 | 1010.0 |
| 20260507040132 | 15 | 159 | 0.0 | 0.0 | 0.00 | 0.13 | 0.13 | 97 | 1010.0 |
| 20260507035628 | 15 | 158 | 0.0 | 0.0 | 0.00 | 0.13 | 0.13 | 97 | 1010.1 |
| 20260507035124 | 15 | 149 | 0.0 | 0.0 | 0.00 | 0.13 | 0.13 | 97 | 1009.9 |
| 20260507034621 | 15 | 156 | 0.0 | 0.0 | 0.00 | 0.13 | 0.13 | 98 | 1010.0 |
| 20260507034119 | 15 | 172 | 1.6 | 1.6 | 0.00 | 0.13 | 0.13 | 98 | 1010.1 |
| 20260507033617 | 15 | 172 | 0.0 | 0.0 | 0.00 | 0.13 | 0.13 | 98 | 1010.0 |
| 20260507033114 | 14 | 155 | 0.0 | 0.0 | 0.00 | 0.13 | 0.13 | 98 | 1010.1 |
| 20260507032611 | 14 | 162 | 0.0 | 0.0 | 0.00 | 0.13 | 0.13 | 98 | 1010.3 |
| 20260507032107 | 14 | 154 | 0.0 | 0.0 | 0.00 | 0.13 | 0.13 | 99 | 1010.1 |
| 20260507031604 | 14 | 151 | 0.0 | 0.0 | 0.00 | 0.13 | 0.13 | 99 | 1010.3 |
| 20260507031101 | 14 | 140 | 0.0 | 0.0 | 0.00 | 0.13 | 0.13 | 99 | 1010.0 |
| 20260507030557 | 14 | 202 | 0.0 | 1.6 | 0.00 | 0.13 | 0.13 | 99 | 1010.1 |
| 20260507030055 | 14 | 162 | 0.0 | 0.0 | 0.00 | 0.13 | 0.13 | 99 | 1010.2 |
| 20260507025552 | 14 | 214 | 6.4 | 9.7 | 0.00 | 0.13 | 0.13 | 99 | 1010.0 |
| 20260507025049 | 14 | 145 | 0.0 | 0.0 | 0.00 | 0.13 | 0.13 | 99 | 1009.9 |
| 20260507024547 | 14 | 157 | 0.0 | 0.0 | 0.00 | 0.13 | 0.13 | 99 | 1010.1 |
| 20260507024044 | 14 | 167 | 4.8 | 6.4 | 0.00 | 0.13 | 0.13 | 99 | 1010.2 |
| 20260507023539 | 14 | 202 | 3.2 | 4.8 | 0.00 | 0.13 | 0.13 | 99 | 1009.9 |
| 20260507023037 | 13 | 152 | 0.0 | 0.0 | 0.00 | 0.13 | 0.13 | 99 | 1010.0 |
| 20260507022534 | 13 | 159 | 0.0 | 0.0 | 0.00 | 0.13 | 0.13 | 99 | 1010.0 |
| 20260507022029 | 13 | 155 | 0.0 | 0.0 | 0.00 | 0.13 | 0.13 | 99 | 1010.2 |
| 20260507021525 | 13 | 202 | 3.2 | 4.8 | 0.00 | 0.13 | 0.13 | 99 | 1010.2 |
| 20260507021022 | 13 | 174 | 3.2 | 3.2 | 0.00 | 0.13 | 0.13 | 99 | 1010.0 |
| 20260507020520 | 13 | 186 | 0.0 | 0.0 | 0.00 | 0.13 | 0.13 | 99 | 1010.2 |
| 20260507020016 | 13 | 161 | 0.0 | 0.0 | 0.00 | 0.13 | 0.13 | 99 | 1010.1 |
| 20260507015515 | 13 | 139 | 0.0 | 0.0 | 0.00 | 0.13 | 0.13 | 99 | 1010.1 |
| 20260507015012 | 13 | 133 | 0.0 | 0.0 | 0.00 | 0.13 | 0.13 | 99 | 1010.2 |
| 20260507014508 | 13 | 196 | 1.6 | 3.2 | 0.00 | 0.13 | 0.13 | 99 | 1010.2 |
| 20260507014004 | 13 | 135 | 0.0 | 0.0 | 0.00 | 0.13 | 0.13 | 99 | 1010.1 |
| 20260507013500 | 13 | 155 | 0.0 | 1.6 | 0.00 | 0.13 | 0.13 | 99 | 1010.3 |
| 20260507012958 | 13 | 190 | 4.8 | 6.4 | 0.00 | 0.13 | 0.13 | 99 | 1010.1 |
| 20260507012455 | 13 | 191 | 3.2 | 4.8 | 0.00 | 0.13 | 0.13 | 99 | 1010.2 |
| 20260507011951 | 13 | 168 | 4.8 | 6.4 | 0.00 | 0.13 | 0.13 | 99 | 1010.4 |
| 20260507011448 | 13 | 195 | 3.2 | 3.2 | 0.00 | 0.13 | 0.13 | 99 | 1010.5 |
| 20260507010944 | 13 | 182 | 1.6 | 3.2 | 0.00 | 0.13 | 0.13 | 99 | 1010.5 |
| 20260507010439 | 13 | 177 | 1.6 | 1.6 | 0.00 | 0.13 | 0.13 | 99 | 1010.3 |
| 20260507005936 | 13 | 176 | 3.2 | 4.8 | 0.00 | 0.13 | 0.13 | 99 | 1010.4 |
| 20260507005433 | 13 | 151 | 0.0 | 0.0 | 0.00 | 0.13 | 0.13 | 99 | 1010.5 |
| 20260507004930 | 13 | 150 | 0.0 | 0.0 | 0.00 | 0.13 | 0.13 | 99 | 1010.5 |
| 20260507004426 | 13 | 150 | 0.0 | 0.0 | 0.00 | 0.13 | 0.13 | 99 | 1010.4 |
| 20260507003924 | 13 | 169 | 0.0 | 0.0 | 0.00 | 0.13 | 0.13 | 99 | 1010.6 |
| 20260507003419 | 13 | 167 | 3.2 | 4.8 | 0.00 | 0.13 | 0.13 | 99 | 1010.5 |
| 20260507002914 | 13 | 152 | 0.0 | 0.0 | 0.00 | 0.13 | 0.13 | 99 | 1010.3 |
| 20260507002410 | 13 | 182 | 3.2 | 4.8 | 0.00 | 0.13 | 0.13 | 99 | 1010.3 |
| 20260507001908 | 13 | 176 | 4.8 | 6.4 | 0.00 | 0.13 | 0.13 | 99 | 1010.4 |
| 20260507001404 | 13 | 175 | 0.0 | 0.0 | 0.00 | 0.13 | 0.13 | 99 | 1010.4 |
| 20260507000902 | 13 | 183 | 9.7 | 12.9 | 0.00 | 0.13 | 0.13 | 99 | 1010.5 |
| 20260507000358 | 13 | 160 | 1.6 | 1.6 | 0.00 | 0.13 | 0.13 | 99 | 1010.3 |
| 20260506235853 | 13 | 173 | 3.2 | 3.2 | 0.00 | 0.13 | 0.13 | 99 | 1010.5 |
| 20260506235351 | 13 | 166 | 4.8 | 6.4 | 0.00 | 0.13 | 0.13 | 99 | 1010.4 |
| 20260506234846 | 13 | 166 | 0.0 | 0.0 | 0.00 | 0.13 | 0.13 | 99 | 1010.3 |
| 20260506234344 | 13 | 147 | 0.0 | 0.0 | 0.00 | 0.13 | 0.13 | 99 | 1010.3 |
| 20260506233841 | 13 | 205 | 8.0 | 11.3 | 0.13 | 0.13 | 0.13 | 99 | 1010.2 |
| 20260506233337 | 13 | 201 | 6.4 | 6.4 | 0.13 | 0.13 | 0.13 | 99 | 1010.2 |
| 20260506232835 | 13 | 133 | 0.0 | 0.0 | 0.13 | 0.13 | 0.13 | 99 | 1010.2 |
| 20260506232330 | 13 | 189 | 4.8 | 4.8 | 0.00 | 0.10 | 0.10 | 99 | 1010.3 |
| 20260506231827 | 13 | 185 | 4.8 | 6.4 | 0.00 | 0.10 | 0.10 | 99 | 1010.1 |
| 20260506231324 | 13 | 178 | 1.6 | 3.2 | 0.00 | 0.10 | 0.10 | 99 | 1010.2 |
| 20260506230822 | 13 | 132 | 0.0 | 1.6 | 0.00 | 0.10 | 0.10 | 99 | 1010.1 |
| 20260506230318 | 13 | 133 | 1.6 | 1.6 | 0.00 | 0.10 | 0.10 | 99 | 1010.4 |
| 20260506225814 | 13 | 153 | 0.0 | 0.0 | 0.00 | 0.10 | 0.10 | 99 | 1010.3 |
| 20260506225312 | 13 | 178 | 1.6 | 1.6 | 0.18 | 0.10 | 0.10 | 99 | 1010.3 |
| 20260506224809 | 13 | 187 | 14.5 | 16.1 | 0.18 | 0.10 | 0.10 | 99 | 1010.3 |
| 20260506224306 | 13 | 160 | 0.0 | 0.0 | 0.00 | 0.08 | 0.08 | 99 | 1010.3 |
| 20260506223802 | 13 | 191 | 6.4 | 9.7 | 0.00 | 0.08 | 0.08 | 98 | 1010.2 |
| 20260506223257 | 13 | 132 | 1.6 | 1.6 | 0.00 | 0.08 | 0.08 | 98 | 1010.0 |
| 20260506222754 | 13 | 170 | 3.2 | 4.8 | 0.00 | 0.08 | 0.08 | 98 | 1010.0 |
| 20260506222250 | 14 | 181 | 0.0 | 0.0 | 0.00 | 0.08 | 0.08 | 98 | 1010.3 |
| 20260506221748 | 14 | 132 | 0.0 | 0.0 | 0.00 | 0.08 | 0.08 | 98 | 1010.3 |
| 20260506221246 | 14 | 140 | 1.6 | 1.6 | 0.00 | 0.08 | 0.08 | 98 | 1010.2 |
| 20260506220743 | 14 | 158 | 0.0 | 0.0 | 0.00 | 0.08 | 0.08 | 98 | 1010.4 |
| 20260506220238 | 14 | 204 | 3.2 | 4.8 | 0.13 | 0.08 | 0.08 | 98 | 1010.5 |
| 20260506215735 | 14 | 172 | 6.4 | 9.7 | 0.13 | 0.08 | 0.08 | 97 | 1010.7 |
| 20260506215230 | 14 | 215 | 4.8 | 6.4 | 0.00 | 0.05 | 0.05 | 97 | 1010.5 |
| 20260506214727 | 15 | 140 | 3.2 | 4.8 | 0.00 | 0.05 | 0.05 | 96 | 1010.7 |
| 20260506214224 | 15 | 189 | 4.8 | 6.4 | 0.00 | 0.05 | 0.05 | 96 | 1010.5 |
| 20260506213722 | 15 | 166 | 1.6 | 1.6 | 0.18 | 0.05 | 0.05 | 95 | 1010.6 |
| 20260506213220 | 15 | 177 | 6.4 | 9.7 | 0.18 | 0.05 | 0.05 | 94 | 1010.6 |
| 20260506212717 | 15 | 180 | 3.2 | 3.2 | 0.18 | 0.05 | 0.05 | 93 | 1010.7 |
| 20260506212212 | 15 | 164 | 0.0 | 1.6 | 0.00 | 0.03 | 0.03 | 91 | 1010.9 |
| 20260506211708 | 15 | 173 | 6.4 | 9.7 | 0.00 | 0.03 | 0.03 | 91 | 1010.8 |
| 20260506211204 | 15 | 196 | 6.4 | 9.7 | 0.00 | 0.03 | 0.03 | 91 | 1011.0 |
| 20260506210701 | 15 | 183 | 0.0 | 0.0 | 0.00 | 0.03 | 0.03 | 91 | 1010.8 |
| 20260506210159 | 15 | 166 | 1.6 | 1.6 | 0.00 | 0.03 | 0.03 | 92 | 1010.9 |
| 20260506205656 | 15 | 203 | 9.7 | 14.5 | 0.00 | 0.03 | 0.03 | 92 | 1010.8 |
| 20260506205156 | 15 | 185 | 4.8 | 6.4 | 0.00 | 0.03 | 0.03 | 92 | 1011.0 |
| 20260506204654 | 15 | 151 | 4.8 | 6.4 | 0.00 | 0.03 | 0.03 | 92 | 1011.1 |
| 20260506204150 | 15 | 168 | 1.6 | 3.2 | 0.00 | 0.03 | 0.03 | 92 | 1011.2 |
| 20260506203648 | 15 | 137 | 6.4 | 11.3 | 0.00 | 0.03 | 0.03 | 92 | 1011.0 |
| 20260506203145 | 15 | 167 | 1.6 | 3.2 | 0.00 | 0.03 | 0.03 | 92 | 1011.1 |
| 20260506202644 | 15 | 158 | 1.6 | 1.6 | 0.00 | 0.03 | 0.03 | 92 | 1011.1 |
| 20260506202139 | 15 | 178 | 4.8 | 9.7 | 0.00 | 0.03 | 0.03 | 92 | 1011.2 |
| 20260506201636 | 15 | 150 | 1.6 | 1.6 | 0.00 | 0.03 | 0.03 | 93 | 1011.3 |